User: anonymous   Login
Location: Girdwood
(60.9430°N, 149.1660°W)
Time: 22:24:24
(UTC-09:00)
Language:

Iridium 86 - Orbit

View from above orbital plane
View from above orbital plane
View from above satellite
View from above satellite

Ground track
Ground track

The orbit data is extracted from the following two-line orbital elements,

1 25528U 98066B   14353.49453362  .00000443  00000-0  15094-3 0  2764
2 25528 086.3942 010.5380 0002462 106.5688 253.5778 14.34219410848838
Epoch (UTC): 19 December 2014 11:52:07
Eccentricity: 0.0002462
inclination: 86.3942°
perigee height: 776 km
apogee height: 779 km
right ascension of ascending node: 10.5380°
argument of perigee: 106.5688°
revolutions per day: 14.34219410
mean anomaly at epoch: 253.5778°
orbit number at epoch: 84883

The dashed part of the orbit path shows where the satellite is in the earth's shadow,  

DLR